,,,PA_Meas_PMT16A,,PR_Meas_QMR101_102,,RH_Meas_QMH101,,SR_Meas_QMS101,,TA_Meas_QMH101,,GenWind,,GenWind,
date,time,status,PA,status,PR,status,RH,status,SR,status,TA,status,DirAvg,status,SpdAvg,
2012-06-30, 00:00:04,VALID,1001.19,VALID,0,VALID,95.8128,VALID,0,VALID,22.8232,VALID,351,VALID,0.607813,
2012-06-30, 00:01:04,VALID,1001.21,VALID,0,VALID,95.8204,VALID,0,VALID,22.8232,VALID,351,VALID,0.717969,
2012-06-30, 00:02:04,VALID,1001.22,VALID,0,VALID,95.7899,VALID,0,VALID,22.8232,VALID,351,VALID,0.403906,
2012-06-30, 00:03:04,VALID,1001.23,VALID,0,VALID,95.8204,VALID,0,VALID,22.864,VALID,351,VALID,0.372656,
2012-06-30, 00:04:04,VALID,1001.24,VALID,0,VALID,95.8051,VALID,0,VALID,22.8427,VALID,351,VALID,0.480859,
2012-06-30, 00:05:04,VALID,1001.29,VALID,0,VALID,95.7975,VALID,0,VALID,22.8232,VALID,351,VALID,0.446484,
2012-06-30, 00:06:04,VALID,1001.3,VALID,0,VALID,95.8357,VALID,0,VALID,22.8037,VALID,351,VALID,0.383984,
2012-06-30, 00:07:04,VALID,1001.32,VALID,0,VALID,95.8204,VALID,0,VALID,22.7842,VALID,351,VALID,0.362109,
2012-06-30, 00:08:04,VALID,1001.35,VALID,0,VALID,95.8204,VALID,0,VALID,22.8037,VALID,351,VALID,0.44375,
2012-06-30, 00:09:04,VALID,1001.39,VALID,0,VALID,95.7975,VALID,0,VALID,22.8427,VALID,351,VALID,0.270703,
2012-06-30, 00:10:04,VALID,1001.41,VALID,0,VALID,95.7975,VALID,0,VALID,22.8623,VALID,351,VALID,0.361719,
2012-06-30, 00:11:04,VALID,1001.44,VALID,0,VALID,95.7899,VALID,0,VALID,22.8818,VALID,351,VALID,0.521484,
2012-06-30, 00:12:04,VALID,1001.49,VALID,0,VALID,95.7899,VALID,0,VALID,22.9013,VALID,351,VALID,0.486719,
2012-06-30, 00:13:04,VALID,1001.48,VALID,0,VALID,95.7746,VALID,0,VALID,22.9208,VALID,351,VALID,0.605078,
2012-06-30, 00:14:04,VALID,1001.54,VALID,0,VALID,95.7975,VALID,0,VALID,22.9403,VALID,351,VALID,0.833203,
2012-06-30, 00:15:04,VALID,1001.52,VALID,0,VALID,95.7899,VALID,0,VALID,22.9598,VALID,351,VALID,0.358984,
2012-06-30, 00:16:04,VALID,1001.51,VALID,0,VALID,95.7746,VALID,0,VALID,22.9988,VALID,351,VALID,0.604297,
2012-06-30, 00:17:04,VALID,1001.49,VALID,0,VALID,95.8051,VALID,0,VALID,23.0183,VALID,318,VALID,0.427734,
2012-06-30, 00:18:04,VALID,1001.49,VALID,0,VALID,95.7975,VALID,0,VALID,23.0378,VALID,318,VALID,0.609375,
2012-06-30, 00:19:04,VALID,1001.42,VALID,0,VALID,95.7899,VALID,0,VALID,23.0573,VALID,318,VALID,0.558594,
2012-06-30, 00:20:04,VALID,1001.39,VALID,0,VALID,95.7822,VALID,0,VALID,23.0573,VALID,318,VALID,0.344531,
2012-06-30, 00:21:04,VALID,1001.39,VALID,0,VALID,95.7899,VALID,0,VALID,23.0964,VALID,318,VALID,0.469922,
2012-06-30, 00:22:04,VALID,1001.38,VALID,0,VALID,95.7975,VALID,0,VALID,23.1159,VALID,260,VALID,0.862109,
2012-06-30, 00:23:04,VALID,1001.41,VALID,0,VALID,95.8128,VALID,0,VALID,23.1354,VALID,258,VALID,0.622656,
2012-06-30, 00:24:04,VALID,1001.41,VALID,0,VALID,95.8128,VALID,0,VALID,23.1549,VALID,258,VALID,0.606641,
2012-06-30, 00:25:04,VALID,1001.49,VALID,0,VALID,95.8128,VALID,0,VALID,23.1549,VALID,323,VALID,1.16445,
2012-06-30, 00:26:04,VALID,1001.49,VALID,0,VALID,95.8128,VALID,0,VALID,23.1939,VALID,314,VALID,1.25156,
2012-06-30, 00:27:04,VALID,1001.51,VALID,0,VALID,95.828,VALID,0,VALID,23.2134,VALID,317,VALID,1.16133,
2012-06-30, 00:28:04,VALID,1001.53,VALID,0,VALID,95.7594,VALID,0,VALID,23.2524,VALID,321,VALID,1.03984,
2012-06-30, 00:29:04,VALID,1001.55,VALID,0,VALID,95.5534,VALID,0,VALID,23.2915,VALID,324,VALID,0.779297,
2012-06-30, 00:30:04,VALID,1001.53,VALID,0,VALID,95.2634,VALID,0,VALID,23.35,VALID,292,VALID,0.880859,
2012-06-30, 00:31:04,VALID,1001.59,VALID,0,VALID,94.8057,VALID,0,VALID,23.389,VALID,304,VALID,1.11289,
2012-06-30, 00:32:04,VALID,1001.57,VALID,0,VALID,94.3479,VALID,0,VALID,23.428,VALID,301,VALID,0.517969,
2012-06-30, 00:33:04,VALID,1001.57,VALID,0,VALID,93.8596,VALID,0,VALID,23.4475,VALID,331,VALID,0.831641,
2012-06-30, 00:34:04,VALID,1001.53,VALID,0,VALID,93.3637,VALID,0,VALID,23.4866,VALID,331,VALID,0.921484,
2012-06-30, 00:35:04,VALID,1001.53,VALID,0,VALID,92.7914,VALID,0,VALID,23.5061,VALID,331,VALID,0.748047,
2012-06-30, 00:36:04,VALID,1001.5,VALID,0,VALID,92.3871,VALID,0,VALID,23.5256,VALID,331,VALID,0.647266,
2012-06-30, 00:37:04,VALID,1001.54,VALID,0,VALID,92.2421,VALID,0,VALID,23.5451,VALID,331,VALID,0.732031,
2012-06-30, 00:38:04,VALID,1001.53,VALID,0,VALID,91.853,VALID,0,VALID,23.5451,VALID,331,VALID,0.395703,
2012-06-30, 00:39:04,VALID,1001.55,VALID,0,VALID,91.5936,VALID,0,VALID,23.5451,VALID,331,VALID,0.814844,
2012-06-30, 00:40:04,VALID,1001.53,VALID,0,VALID,91.1587,VALID,0,VALID,23.5646,VALID,331,VALID,1.03164,
2012-06-30, 00:41:04,VALID,1001.52,VALID,0,VALID,90.9832,VALID,0,VALID,23.5841,VALID,331,VALID,0.657422,
2012-06-30, 00:42:04,VALID,1001.56,VALID,0,VALID,90.678,VALID,0,VALID,23.6036,VALID,331,VALID,1.32891,
2012-06-30, 00:43:04,VALID,1001.52,VALID,0,VALID,90.5712,VALID,0,VALID,23.6622,VALID,331,VALID,1.18633,
2012-06-30, 00:44:04,VALID,1001.5,VALID,0,VALID,90.3423,VALID,0,VALID,23.7012,VALID,331,VALID,1.02305,
2012-06-30, 00:45:04,VALID,1001.46,VALID,0,VALID,90.1745,VALID,0,VALID,23.7207,VALID,331,VALID,0.676172,
2012-06-30, 00:46:04,VALID,1001.47,VALID,0,VALID,90.3118,VALID,0,VALID,23.7597,VALID,331,VALID,0.444141,
2012-06-30, 00:47:04,VALID,1001.44,VALID,0,VALID,90.1211,VALID,0,VALID,23.7597,VALID,331,VALID,0.255078,
2012-06-30, 00:48:04,VALID,1001.43,VALID,0,VALID,90.1211,VALID,0,VALID,23.7597,VALID,331,VALID,0.158594,
2012-06-30, 00:49:04,VALID,1001.37,VALID,0,VALID,89.9303,VALID,0,VALID,23.7597,VALID,331,VALID,0.291406,
2012-06-30, 00:50:04,VALID,1001.35,VALID,0,VALID,89.7777,VALID,0,VALID,23.7793,VALID,331,VALID,0.772266,
2012-06-30, 00:51:04,VALID,1001.3,VALID,0,VALID,89.381,VALID,0,VALID,23.8183,VALID,331,VALID,0.223828,
2012-06-30, 00:52:04,VALID,1001.28,VALID,0,VALID,89.1521,VALID,0,VALID,23.8378,VALID,331,VALID,0.255078,
2012-06-30, 00:53:04,VALID,1001.25,VALID,0,VALID,89.5489,VALID,0,VALID,23.8768,VALID,331,VALID,0.071875,
2012-06-30, 00:54:04,VALID,1001.24,VALID,0,VALID,89.381,VALID,0,VALID,23.8573,VALID,331,VALID,0,
2012-06-30, 00:55:04,VALID,1001.24,VALID,0,VALID,89.3886,VALID,0,VALID,23.8768,VALID,331,VALID,0.0816406,
2012-06-30, 00:56:04,VALID,1001.25,VALID,0,VALID,89.4344,VALID,0,VALID,23.8573,VALID,331,VALID,0.0296875,
2012-06-30, 00:57:04,VALID,1001.23,VALID,0,VALID,89.5641,VALID,0,VALID,23.8768,VALID,331,VALID,0,
2012-06-30, 00:58:04,VALID,1001.26,VALID,0,VALID,89.5946,VALID,0,VALID,23.8768,VALID,331,VALID,0.335156,
2012-06-30, 00:59:04,VALID,1001.29,VALID,0,VALID,89.4573,VALID,0,VALID,23.8555,VALID,331,VALID,0.472656,
2012-06-30, 01:00:04,VALID,1001.28,VALID,0,VALID,89.0529,VALID,0,VALID,23.8573,VALID,331,VALID,0.678906,
2012-06-30, 01:01:04,VALID,1001.32,VALID,0,VALID,88.9995,VALID,0,VALID,23.8963,VALID,331,VALID,0.835938,
2012-06-30, 01:02:04,VALID,1001.33,VALID,0,VALID,89.0148,VALID,0,VALID,23.9372,VALID,331,VALID,1.04766,
2012-06-30, 01:03:04,VALID,1001.35,VALID,0,VALID,89.3886,VALID,0,VALID,23.9549,VALID,43,VALID,1.49844,
2012-06-30, 01:04:04,VALID,1001.38,VALID,0,VALID,89.9837,VALID,0,VALID,23.9744,VALID,51,VALID,1.79727,
2012-06-30, 01:05:04,VALID,1001.4,VALID,0,VALID,90.6475,VALID,0,VALID,23.9939,VALID,54,VALID,1.77109,
2012-06-30, 01:06:04,VALID,1001.41,VALID,0,VALID,91.3037,VALID,0,VALID,23.9744,VALID,59,VALID,1.64883,
2012-06-30, 01:07:04,VALID,1001.41,VALID,0,VALID,91.6851,VALID,0,VALID,23.9549,VALID,75,VALID,1.93555,
2012-06-30, 01:08:04,VALID,1001.44,VALID,0,VALID,92.0666,VALID,0,VALID,23.9159,VALID,85,VALID,1.50859,
2012-06-30, 01:09:04,VALID,1001.46,VALID,0,VALID,92.2497,VALID,0,VALID,23.8573,VALID,75,VALID,1.26875,
2012-06-30, 01:10:04,VALID,1001.44,VALID,0,VALID,92.5091,VALID,0,VALID,23.8183,VALID,75,VALID,0.879297,
2012-06-30, 01:11:04,VALID,1001.44,VALID,0,VALID,92.8143,VALID,0,VALID,23.7988,VALID,81,VALID,1.27578,
2012-06-30, 01:12:04,VALID,1001.42,VALID,0,VALID,92.9288,VALID,0,VALID,23.7597,VALID,42,VALID,1.48438,
2012-06-30, 01:13:04,VALID,1001.44,VALID,0,VALID,93.1195,VALID,0,VALID,23.7402,VALID,42,VALID,1.18594,
2012-06-30, 01:14:04,VALID,1001.42,VALID,0,VALID,93.2797,VALID,0,VALID,23.7402,VALID,24,VALID,1.23047,
2012-06-30, 01:15:04,VALID,1001.43,VALID,0,VALID,93.4323,VALID,0,VALID,23.7207,VALID,3,VALID,0.983984,
2012-06-30, 01:16:04,VALID,1001.39,VALID,0,VALID,93.4247,VALID,0,VALID,23.7012,VALID,358,VALID,0.841797,
2012-06-30, 01:17:04,VALID,1001.36,VALID,0,VALID,93.3942,VALID,0,VALID,23.6622,VALID,357,VALID,0.848047,
2012-06-30, 01:18:04,VALID,1001.34,VALID,0,VALID,93.4094,VALID,0,VALID,23.6622,VALID,351,VALID,1.09766,
2012-06-30, 01:19:04,VALID,1001.31,VALID,0,VALID,93.4247,VALID,0,VALID,23.6427,VALID,343,VALID,0.485156,
2012-06-30, 01:20:04,VALID,1001.28,VALID,0,VALID,93.5849,VALID,0,VALID,23.6427,VALID,343,VALID,0.354688,
2012-06-30, 01:21:04,VALID,1001.24,VALID,0.5,VALID,93.5849,VALID,0,VALID,23.6232,VALID,343,VALID,0.375,
2012-06-30, 01:22:04,VALID,1001.2,VALID,0,VALID,93.5849,VALID,0,VALID,23.6036,VALID,343,VALID,0.197266,
2012-06-30, 01:23:04,VALID,1001.2,VALID,0,VALID,93.6231,VALID,0,VALID,23.6036,VALID,343,VALID,0.401953,
2012-06-30, 01:24:04,VALID,1001.16,VALID,0,VALID,93.6994,VALID,0,VALID,23.6036,VALID,343,VALID,0.540625,
2012-06-30, 01:25:04,VALID,1001.15,VALID,0,VALID,93.6841,VALID,0,VALID,23.6036,VALID,343,VALID,0.666406,
2012-06-30, 01:26:04,VALID,1001.11,VALID,0,VALID,93.7223,VALID,0,VALID,23.6036,VALID,130,VALID,1.13203,
2012-06-30, 01:27:04,VALID,1001.05,VALID,0,VALID,93.6612,VALID,0,VALID,23.5628,VALID,131,VALID,1.30742,
2012-06-30, 01:28:04,VALID,1001.04,VALID,0,VALID,93.5468,VALID,0,VALID,23.6036,VALID,141,VALID,1.68555,
2012-06-30, 01:29:05,VALID,1001.01,VALID,0,VALID,93.7451,VALID,0,VALID,23.6427,VALID,143,VALID,1.96484,
2012-06-30, 01:30:05,VALID,1000.92,VALID,0,VALID,93.7451,VALID,0,VALID,23.6232,VALID,142,VALID,2.5918,
2012-06-30, 01:31:05,VALID,1000.91,VALID,0,VALID,93.8214,VALID,0,VALID,23.5841,VALID,144,VALID,2.20586,
2012-06-30, 01:32:05,VALID,1000.87,VALID,0,VALID,94.0198,VALID,0,VALID,23.6036,VALID,145,VALID,2.06953,
2012-06-30, 01:33:05,VALID,1000.81,VALID,0.5,VALID,93.8977,VALID,0,VALID,23.5451,VALID,159,VALID,2.00938,
2012-06-30, 01:34:05,VALID,1000.78,VALID,0,VALID,94.0732,VALID,0,VALID,23.5841,VALID,137,VALID,1.96172,
2012-06-30, 01:35:05,VALID,1000.73,VALID,0,VALID,93.9969,VALID,0,VALID,23.5451,VALID,133,VALID,2.42461,
2012-06-30, 01:36:05,VALID,1000.73,VALID,0,VALID,93.9435,VALID,0,VALID,23.5061,VALID,149,VALID,2.13477,
2012-06-30, 01:37:05,VALID,1000.71,VALID,0,VALID,93.9054,VALID,0,VALID,23.4866,VALID,149,VALID,1.42031,
2012-06-30, 01:38:05,VALID,1000.68,VALID,0,VALID,93.8672,VALID,0,VALID,23.4671,VALID,145,VALID,1.21523,
2012-06-30, 01:39:05,VALID,1000.68,VALID,0,VALID,93.7451,VALID,0,VALID,23.428,VALID,158,VALID,1.46133,
2012-06-30, 01:40:05,VALID,1000.69,VALID,0,VALID,93.5086,VALID,0,VALID,23.428,VALID,158,VALID,1.57422,
2012-06-30, 01:41:05,VALID,1000.69,VALID,0,VALID,93.6154,VALID,0,VALID,23.428,VALID,158,VALID,1.29883,
2012-06-30, 01:42:05,VALID,1000.63,VALID,0.5,VALID,93.8062,VALID,0,VALID,23.428,VALID,158,VALID,1.57813,
2012-06-30, 01:43:05,VALID,1000.57,VALID,0,VALID,93.8672,VALID,0,VALID,23.4085,VALID,172,VALID,2.05586,
2012-06-30, 01:44:05,VALID,1000.56,VALID,0,VALID,94.0198,VALID,0,VALID,23.4085,VALID,169,VALID,2.6875,
2012-06-30, 01:45:05,VALID,1000.5,VALID,0,VALID,94.2487,VALID,0,VALID,23.4085,VALID,176,VALID,2.93438,
2012-06-30, 01:46:05,VALID,1000.45,VALID,0,VALID,94.4776,VALID,0,VALID,23.428,VALID,185,VALID,2.59063,
2012-06-30, 01:47:05,VALID,1000.41,VALID,0,VALID,94.7141,VALID,0,VALID,23.4671,VALID,171,VALID,3.59492,
2012-06-30, 01:48:05,VALID,1000.37,VALID,0,VALID,94.7141,VALID,0,VALID,23.3695,VALID,177,VALID,3.94531,
2012-06-30, 01:49:05,VALID,1000.34,VALID,0.5,VALID,94.676,VALID,0,VALID,23.3305,VALID,173,VALID,4.1082,
2012-06-30, 01:50:05,VALID,1000.37,VALID,0,VALID,94.4928,VALID,0,VALID,23.2915,VALID,176,VALID,3.9043,
2012-06-30, 01:51:05,VALID,1000.33,VALID,0,VALID,94.3326,VALID,0,VALID,23.2719,VALID,177,VALID,3.62656,
2012-06-30, 01:52:05,VALID,1000.38,VALID,0,VALID,94.1419,VALID,0,VALID,23.2134,VALID,183,VALID,2.89141,
2012-06-30, 01:53:05,VALID,1000.34,VALID,0,VALID,94.2334,VALID,0,VALID,23.2329,VALID,173,VALID,3.28672,
2012-06-30, 01:54:05,VALID,1000.35,VALID,0.5,VALID,94.3555,VALID,0,VALID,23.2134,VALID,180,VALID,2.52617,
2012-06-30, 01:55:05,VALID,1000.32,VALID,0,VALID,94.4852,VALID,0,VALID,23.2134,VALID,169,VALID,2.70156,
2012-06-30, 01:56:05,VALID,1000.29,VALID,0,VALID,94.5691,VALID,0,VALID,23.1762,VALID,191,VALID,2.38555,
2012-06-30, 01:57:05,VALID,1000.23,VALID,0,VALID,94.6378,VALID,0,VALID,23.1159,VALID,181,VALID,3.09414,
2012-06-30, 01:58:05,VALID,1000.19,VALID,0,VALID,94.6378,VALID,0,VALID,23.0573,VALID,180,VALID,2.7582,
2012-06-30, 01:59:05,VALID,1000.14,VALID,0,VALID,94.7065,VALID,0,VALID,22.9988,VALID,184,VALID,2.40195,
2012-06-30, 02:00:05,VALID,1000.08,VALID,0,VALID,94.6836,VALID,0,VALID,22.9403,VALID,181,VALID,3.15039,
2012-06-30, 02:01:05,VALID,1000.1,VALID,0.5,VALID,94.7751,VALID,0,VALID,22.9403,VALID,176,VALID,2.76211,
2012-06-30, 02:02:05,VALID,1000.05,VALID,0,VALID,94.8896,VALID,0,VALID,22.9598,VALID,176,VALID,2.77969,
2012-06-30, 02:03:05,VALID,1000.05,VALID,0,VALID,94.9201,VALID,0,VALID,22.8995,VALID,170,VALID,2.48359,
2012-06-30, 02:04:05,VALID,1000.03,VALID,0,VALID,95.004,VALID,0,VALID,22.9208,VALID,170,VALID,2.60313,
2012-06-30, 02:05:05,VALID,1000.08,VALID,0,VALID,95.0345,VALID,0,VALID,22.9225,VALID,171,VALID,2.26133,
2012-06-30, 02:06:05,VALID,1000.08,VALID,0,VALID,95.0803,VALID,0,VALID,22.8818,VALID,158,VALID,2.48828,
2012-06-30, 02:07:05,VALID,1000.08,VALID,0,VALID,95.0956,VALID,0,VALID,22.8818,VALID,159,VALID,1.88945,
2012-06-30, 02:08:05,VALID,1000.1,VALID,0,VALID,95.1032,VALID,0,VALID,22.8232,VALID,156,VALID,1.6957,
2012-06-30, 02:09:05,VALID,1000.08,VALID,0,VALID,95.0803,VALID,0,VALID,22.7842,VALID,154,VALID,2.24141,
2012-06-30, 02:10:05,VALID,1000.03,VALID,0,VALID,95.0574,VALID,0,VALID,22.8037,VALID,145,VALID,1.91055,
2012-06-30, 02:11:05,VALID,1000.05,VALID,0,VALID,95.0193,VALID,0,VALID,22.7647,VALID,147,VALID,1.60117,
2012-06-30, 02:12:05,VALID,1000.03,VALID,0,VALID,95.0269,VALID,0,VALID,22.7842,VALID,149,VALID,1.46289,
2012-06-30, 02:13:05,VALID,1000.01,VALID,0,VALID,95.0422,VALID,0,VALID,22.7647,VALID,149,VALID,1.45859,
2012-06-30, 02:14:05,VALID,1000.02,VALID,0,VALID,95.0117,VALID,0,VALID,22.7842,VALID,152,VALID,1.41172,
2012-06-30, 02:15:05,VALID,1000,VALID,0,VALID,94.9583,VALID,0,VALID,22.7647,VALID,149,VALID,1.86328,
2012-06-30, 02:16:05,VALID,1000.01,VALID,0,VALID,94.8972,VALID,0,VALID,22.7647,VALID,152,VALID,1.42734,
2012-06-30, 02:17:05,VALID,999.991,VALID,0,VALID,94.8362,VALID,0,VALID,22.7647,VALID,152,VALID,1.20977,
2012-06-30, 02:18:05,VALID,999.989,VALID,0,VALID,94.7828,VALID,0,VALID,22.7842,VALID,177,VALID,1.29297,
2012-06-30, 02:19:05,VALID,999.963,VALID,0,VALID,94.7217,VALID,0,VALID,22.7842,VALID,192,VALID,1.32656,
2012-06-30, 02:20:05,VALID,999.979,VALID,0,VALID,94.6073,VALID,0,VALID,22.7842,VALID,192,VALID,1.11875,
2012-06-30, 02:21:05,VALID,999.937,VALID,0,VALID,94.5462,VALID,0,VALID,22.8037,VALID,183,VALID,1.22852,
2012-06-30, 02:22:05,VALID,999.963,VALID,0,VALID,94.531,VALID,0,VALID,22.8427,VALID,179,VALID,0.988672,
2012-06-30, 02:23:05,VALID,999.928,VALID,0,VALID,94.531,VALID,0,VALID,22.8427,VALID,179,VALID,0.932813,
2012-06-30, 02:24:05,VALID,999.888,VALID,0,VALID,94.4394,VALID,0,VALID,22.8427,VALID,193,VALID,1.30781,
2012-06-30, 02:25:05,VALID,999.882,VALID,0,VALID,94.3021,VALID,0,VALID,22.8623,VALID,193,VALID,1.10352,
2012-06-30, 02:26:05,VALID,999.877,VALID,0,VALID,94.2105,VALID,0,VALID,22.8818,VALID,193,VALID,1.20586,
2012-06-30, 02:27:05,VALID,999.83,VALID,0,VALID,94.2105,VALID,0,VALID,22.8995,VALID,193,VALID,0.818359,
2012-06-30, 02:28:05,VALID,999.83,VALID,0,VALID,94.1877,VALID,0,VALID,22.9598,VALID,193,VALID,0.667969,
2012-06-30, 02:29:05,VALID,999.838,VALID,0,VALID,94.1495,VALID,0,VALID,22.9403,VALID,193,VALID,0.491016,
2012-06-30, 02:30:05,VALID,999.825,VALID,0,VALID,94.1266,VALID,0,VALID,22.9403,VALID,193,VALID,0.347656,
2012-06-30, 02:31:05,VALID,999.821,VALID,0,VALID,94.119,VALID,0,VALID,22.9208,VALID,193,VALID,0.5125,
2012-06-30, 02:32:05,VALID,999.835,VALID,0,VALID,94.0961,VALID,0,VALID,22.9208,VALID,193,VALID,0.627344,
2012-06-30, 02:33:05,VALID,999.802,VALID,0,VALID,94.1266,VALID,0,VALID,22.9208,VALID,193,VALID,0.54375,
2012-06-30, 02:34:05,VALID,999.797,VALID,0,VALID,94.119,VALID,0,VALID,22.9208,VALID,193,VALID,0.205859,
2012-06-30, 02:35:05,VALID,999.76,VALID,0,VALID,94.1343,VALID,0,VALID,22.8995,VALID,193,VALID,0,
2012-06-30, 02:36:05,VALID,999.749,VALID,0,VALID,94.1419,VALID,0,VALID,22.9013,VALID,193,VALID,0.128516,
2012-06-30, 02:37:05,VALID,999.738,VALID,0,VALID,94.2029,VALID,0,VALID,22.8818,VALID,193,VALID,0.0925781,
2012-06-30, 02:38:05,VALID,999.714,VALID,0,VALID,94.2487,VALID,0,VALID,22.8818,VALID,193,VALID,0,
2012-06-30, 02:39:05,VALID,999.669,VALID,0,VALID,94.3021,VALID,0,VALID,22.8818,VALID,193,VALID,0.0585938,
2012-06-30, 02:40:05,VALID,999.672,VALID,0,VALID,94.4013,VALID,0,VALID,22.8623,VALID,193,VALID,0.569531,
2012-06-30, 02:41:05,VALID,999.651,VALID,0,VALID,94.4242,VALID,0,VALID,22.8623,VALID,136,VALID,0.9375,
2012-06-30, 02:42:05,VALID,999.664,VALID,0,VALID,94.4852,VALID,0,VALID,22.8215,VALID,128,VALID,0.912109,
2012-06-30, 02:43:05,VALID,999.623,VALID,0,VALID,94.5462,VALID,0,VALID,22.8215,VALID,124,VALID,0.728125,
2012-06-30, 02:44:05,VALID,999.596,VALID,0,VALID,94.5997,VALID,0,VALID,22.8427,VALID,124,VALID,0.926562,
2012-06-30, 02:45:05,VALID,999.604,VALID,0,VALID,94.6531,VALID,0,VALID,22.802,VALID,111,VALID,0.884375,
2012-06-30, 02:46:05,VALID,999.6,VALID,0,VALID,94.7217,VALID,0,VALID,22.8232,VALID,111,VALID,0.852344,
2012-06-30, 02:47:05,VALID,999.553,VALID,0,VALID,94.7599,VALID,0,VALID,22.8232,VALID,111,VALID,0.969141,
2012-06-30, 02:48:05,VALID,999.577,VALID,0,VALID,94.8133,VALID,0,VALID,22.8037,VALID,74,VALID,1.13359,
2012-06-30, 02:49:05,VALID,999.591,VALID,0,VALID,94.8514,VALID,0,VALID,22.8037,VALID,59,VALID,1.23125,
2012-06-30, 02:50:05,VALID,999.548,VALID,0,VALID,94.9125,VALID,0,VALID,22.8445,VALID,51,VALID,1.21797,
2012-06-30, 02:51:05,VALID,999.526,VALID,0,VALID,94.9735,VALID,0,VALID,22.8427,VALID,51,VALID,1.17773,
2012-06-30, 02:52:05,VALID,999.53,VALID,0,VALID,95.0803,VALID,0,VALID,22.8427,VALID,51,VALID,1.16914,
2012-06-30, 02:53:05,VALID,999.54,VALID,0,VALID,95.1414,VALID,0,VALID,22.8623,VALID,51,VALID,1.4043,
2012-06-30, 02:54:05,VALID,999.505,VALID,0,VALID,95.1795,VALID,0,VALID,22.8623,VALID,51,VALID,1.11719,
2012-06-30, 02:55:05,VALID,999.476,VALID,0,VALID,95.2253,VALID,0,VALID,22.8623,VALID,51,VALID,1.09766,
2012-06-30, 02:56:05,VALID,999.485,VALID,0,VALID,95.2482,VALID,0,VALID,22.8818,VALID,51,VALID,0.946094,
2012-06-30, 02:57:05,VALID,999.491,VALID,0,VALID,95.2863,VALID,0,VALID,22.8818,VALID,41,VALID,1.20664,
2012-06-30, 02:58:05,VALID,999.442,VALID,0,VALID,95.3168,VALID,0,VALID,22.8623,VALID,41,VALID,1.2125,
2012-06-30, 02:59:05,VALID,999.404,VALID,0,VALID,95.3245,VALID,0,VALID,22.8232,VALID,40,VALID,1.38242,
2012-06-30, 03:00:05,VALID,999.427,VALID,0,VALID,95.3016,VALID,0,VALID,22.7842,VALID,40,VALID,1.52656,
2012-06-30, 03:01:05,VALID,999.414,VALID,0,VALID,95.3168,VALID,0,VALID,22.7647,VALID,40,VALID,1.35664,
2012-06-30, 03:02:05,VALID,999.392,VALID,0,VALID,95.3321,VALID,0,VALID,22.7452,VALID,40,VALID,1.25352,
2012-06-30, 03:03:05,VALID,999.387,VALID,0,VALID,95.3168,VALID,0,VALID,22.7257,VALID,40,VALID,1.22852,
2012-06-30, 03:04:05,VALID,999.37,VALID,0,VALID,95.3168,VALID,0,VALID,22.7257,VALID,40,VALID,1.13398,
2012-06-30, 03:05:05,VALID,999.354,VALID,0,VALID,95.3397,VALID,0,VALID,22.7062,VALID,40,VALID,1.11211,
2012-06-30, 03:06:05,VALID,999.335,VALID,0,VALID,95.3474,VALID,0,VALID,22.7062,VALID,40,VALID,1.23711,
2012-06-30, 03:07:05,VALID,999.313,VALID,0,VALID,95.3321,VALID,0,VALID,22.7062,VALID,40,VALID,1.2332,
2012-06-30, 03:08:05,VALID,999.309,VALID,0,VALID,95.3321,VALID,0,VALID,22.7062,VALID,40,VALID,1.18984,
2012-06-30, 03:09:05,VALID,999.293,VALID,0,VALID,95.3321,VALID,0,VALID,22.6867,VALID,40,VALID,1.11211,
2012-06-30, 03:10:05,VALID,999.291,VALID,0,VALID,95.3321,VALID,0,VALID,22.6867,VALID,40,VALID,1.06914,
2012-06-30, 03:11:05,VALID,999.274,VALID,0,VALID,95.3397,VALID,0,VALID,22.6867,VALID,40,VALID,1.18164,
2012-06-30, 03:12:05,VALID,999.232,VALID,0,VALID,95.3474,VALID,0,VALID,22.6867,VALID,40,VALID,1.1457,
2012-06-30, 03:13:05,VALID,999.25,VALID,0,VALID,95.3397,VALID,0,VALID,22.6867,VALID,40,VALID,0.832422,
2012-06-30, 03:14:05,VALID,999.213,VALID,0,VALID,95.3855,VALID,0,VALID,22.7062,VALID,40,VALID,0.684766,
2012-06-30, 03:15:05,VALID,999.197,VALID,0,VALID,95.4084,VALID,0,VALID,22.7257,VALID,40,VALID,0.396875,
2012-06-30, 03:16:05,VALID,999.185,VALID,0,VALID,95.3855,VALID,0,VALID,22.7062,VALID,40,VALID,0.237109,
2012-06-30, 03:17:05,VALID,999.197,VALID,0,VALID,95.4084,VALID,0,VALID,22.7062,VALID,40,VALID,0,
2012-06-30, 03:18:05,VALID,999.205,VALID,0.5,VALID,95.4084,VALID,0,VALID,22.7257,VALID,40,VALID,0,
2012-06-30, 03:19:05,VALID,999.19,VALID,0,VALID,95.4237,VALID,0,VALID,22.7274,VALID,40,VALID,0,
2012-06-30, 03:20:05,VALID,999.2,VALID,0,VALID,95.4313,VALID,0,VALID,22.7257,VALID,40,VALID,0,
2012-06-30, 03:21:05,VALID,999.189,VALID,0,VALID,95.4389,VALID,0,VALID,22.6867,VALID,40,VALID,0,
2012-06-30, 03:22:05,VALID,999.209,VALID,0,VALID,95.4542,VALID,0,VALID,22.7062,VALID,40,VALID,0,
2012-06-30, 03:23:05,VALID,999.196,VALID,0,VALID,95.4618,VALID,0,VALID,22.7062,VALID,40,VALID,0,
2012-06-30, 03:24:05,VALID,999.187,VALID,0,VALID,95.4694,VALID,0,VALID,22.7062,VALID,40,VALID,0,
2012-06-30, 03:25:05,VALID,999.179,VALID,0,VALID,95.4694,VALID,0,VALID,22.7062,VALID,40,VALID,0,
2012-06-30, 03:26:05,VALID,999.179,VALID,0,VALID,95.4847,VALID,0,VALID,22.7062,VALID,40,VALID,0,
2012-06-30, 03:27:05,VALID,999.192,VALID,0,VALID,95.5076,VALID,0,VALID,22.7062,VALID,40,VALID,0,
2012-06-30, 03:28:05,VALID,999.179,VALID,0,VALID,95.5076,VALID,0,VALID,22.7062,VALID,40,VALID,0,
2012-06-30, 03:29:05,VALID,999.166,VALID,0,VALID,95.5228,VALID,0,VALID,22.7062,VALID,40,VALID,0,
2012-06-30, 03:30:05,VALID,999.189,VALID,0,VALID,95.5381,VALID,0,VALID,22.6655,VALID,40,VALID,0,
2012-06-30, 03:31:05,VALID,999.212,VALID,0,VALID,95.5457,VALID,0,VALID,22.6867,VALID,40,VALID,0,
2012-06-30, 03:32:05,VALID,999.209,VALID,0,VALID,95.5534,VALID,0,VALID,22.6867,VALID,40,VALID,0,
2012-06-30, 03:33:05,VALID,999.227,VALID,0,VALID,95.5686,VALID,0,VALID,22.6867,VALID,40,VALID,0,
2012-06-30, 03:34:05,VALID,999.255,VALID,0,VALID,95.5686,VALID,0,VALID,22.6867,VALID,40,VALID,0,
2012-06-30, 03:35:05,VALID,999.28,VALID,0,VALID,95.5762,VALID,0,VALID,22.6672,VALID,40,VALID,0,
2012-06-30, 03:36:05,VALID,999.288,VALID,0,VALID,95.5839,VALID,0,VALID,22.6264,VALID,40,VALID,0,
2012-06-30, 03:37:05,VALID,999.299,VALID,0,VALID,95.5762,VALID,0,VALID,22.6477,VALID,40,VALID,0.765234,
2012-06-30, 03:38:05,VALID,999.308,VALID,0,VALID,95.5915,VALID,0,VALID,22.6672,VALID,40,VALID,0.875391,
2012-06-30, 03:39:05,VALID,999.31,VALID,0,VALID,95.6144,VALID,0,VALID,22.6867,VALID,55,VALID,0.907812,
2012-06-30, 03:40:05,VALID,999.283,VALID,0,VALID,95.6373,VALID,0,VALID,22.7045,VALID,94,VALID,0.969531,
2012-06-30, 03:41:05,VALID,999.315,VALID,0,VALID,95.6449,VALID,0,VALID,22.7062,VALID,105,VALID,1.23359,
2012-06-30, 03:42:05,VALID,999.296,VALID,0,VALID,95.6678,VALID,0,VALID,22.685,VALID,105,VALID,1.14688,
2012-06-30, 03:43:05,VALID,999.255,VALID,0,VALID,95.6678,VALID,0,VALID,22.7257,VALID,105,VALID,0.852344,
2012-06-30, 03:44:05,VALID,999.261,VALID,0,VALID,95.6754,VALID,0,VALID,22.7045,VALID,105,VALID,0.420703,
2012-06-30, 03:45:05,VALID,999.234,VALID,0,VALID,95.6831,VALID,0,VALID,22.7452,VALID,105,VALID,0.312891,
2012-06-30, 03:46:05,VALID,999.225,VALID,0,VALID,95.6754,VALID,0,VALID,22.7452,VALID,105,VALID,0.340625,
2012-06-30, 03:47:05,VALID,999.229,VALID,0,VALID,95.706,VALID,0,VALID,22.7257,VALID,105,VALID,0.188281,